This demonstration page uses our WeatherBlox Daily Observations layout. Learn more.

Left ArrowRight Arrow

44.89941, -97.11507

Hourly Observations for January 16, 2016

Temp ( °F °C ) Dew Point ( °F °C ) Humidity (%) Winds ( mph kmh ) Pressure ( in mb ) Visibility ( mi km ) Precip ( " mm )
12:27 am 00:27 Cloudy 3 -16.1 -3 -19.4 76 76 NNE 3 6 30.15 1021 10 16 0.00 0.00
12:53 am 00:53 Cloudy 2 -16.7 -4 -20 76 76 NNE 8 13 30.06 1018 10 16 0.00 0.00
1:53 am 01:53 Cloudy 2 -16.7 -6 -21.1 69 69 NNE 6 9 30.07 1018 10 16 0.00 0.00
2:53 am 02:53 Cloudy 1 -17.2 -6 -21.1 72 72 N 5 7 30.07 1018 10 16 0.00 0.00
3:53 am 03:53 Cloudy 1 -17.2 -6 -21.1 72 72 NNE 6 9 30.08 1019 10 16 0.00 0.00
4:41 am 04:41 Cloudy with Light Snow 0 -17.8 -7 -21.7 72 72 N 9 15 30.21 1023 2 3 0.00 0.03
4:51 am 04:51 Cloudy with Light Snow 0 -18 -8 -22 71 71 N 9 15 30.21 1023 2 3 0.00 0.03
4:53 am 04:53 Cloudy with Light Snow 0 -17.8 -7 -21.7 72 72 N 9 15 30.10 1019 2 3 0.00 0.03
5:00 am 05:00 Cloudy with Light Snow 0 -17.8 -7 -21.7 72 72 N 10 17 30.21 1023 3 4 0.00 0.03
5:08 am 05:08 Cloudy with Light Snow 0 -17.8 -8 -22.2 69 69 N 9 15 30.21 1023 4 6 0.00 0.03
5:25 am 05:25 Cloudy with Light Snow 0 -17.8 -8 -22.2 69 69 N 9 15 30.21 1023 2 3 0.00 0.03
5:37 am 05:37 Cloudy with Light Snow 0 -17.8 -7 -21.7 72 72 N 10 17 30.21 1023 2 2 0.00 0.03
5:53 am 05:53 Cloudy with Light Snow -1 -18.3 -7 -21.7 75 75 N 10 17 30.11 1020 2 3 0.00 0.03
6:08 am 06:08 Cloudy with Light Snow -1 -18.3 -7 -21.7 75 75 N 10 17 30.21 1023 4 6 0.00 0.03
6:40 am 06:40 Cloudy with Light Snow 0 -17.8 -7 -21.7 72 72 N 12 19 30.21 1023 3 4 0.00 0.03
6:49 am 06:49 Cloudy with Light Snow 0 -18 -8 -22 71 71 N 10 17 30.21 1023 2 3 0.00 0.03
6:53 am 06:53 Cloudy with Light Snow 0 -17.8 -7 -21.7 72 72 N 10 17 30.11 1020 2 3 0.00 0.03
7:12 am 07:12 Cloudy with Haze 0 -17.8 -6 -21.1 76 76 N 10 17 30.21 1023 5 8 0.00 0.03
7:53 am 07:53 Mostly Clear 0 -17.8 -8 -22.2 69 69 NNW 14 22 30.13 1020 10 16 0.00 0.03
8:53 am 08:53 Cloudy 0 -17.8 -8 -22.2 69 69 NNW 12 19 30.14 1021 10 16 0.00 0.00
9:53 am 09:53 Cloudy 0 -17.8 -8 -22.2 69 69 NNW 16 26 30.17 1022 10 16 0.00 0.00
10:42 am 10:42 Cloudy 0 -17.8 -9 -22.8 65 65 NW 17 28 30.27 1025 7 11 0.00 0.00
10:53 am 10:53 Cloudy with Haze 0 -17.8 -8 -22.2 69 69 NW 17 28 30.19 1022 5 8 0.00 0.00
11:21 am 11:21 Cloudy 1 -17.2 -9 -22.8 62 62 NW 22 35 30.27 1025 8 13 0.00 0.00
11:53 am 11:53 Cloudy with Haze 0 -17.8 -10 -23.3 62 62 NW 20 31 30.19 1022 6 10 0.00 0.00
12:22 pm 12:22 Cloudy with Haze 0 -17.8 -10 -23.3 62 62 NNW 18 30 30.27 1025 6 10 0.00 0.00
12:53 pm 12:53 Mostly Cloudy with Haze -2 -18.9 -12 -24.4 62 62 NW 15 24 30.18 1022 4 6 0.00 0.00
1:01 pm 13:01 Mostly Cloudy with Haze -3 -19.4 -11 -23.9 68 68 NNW 17 28 30.24 1024 3 5 0.00 0.00
1:22 pm 13:22 Mostly Cloudy with Haze -3 -19.4 -12 -24.4 65 65 NW 17 28 30.24 1024 2 3 0.00 0.00
1:27 pm 13:27 Mostly Cloudy with Haze -3 -19.4 -13 -25 61 61 NW 17 28 30.27 1025 5 8 0.00 0.00
1:53 pm 13:53 Mostly Cloudy with Haze -4 -20 -14 -25.6 61 61 NNW 17 28 30.19 1022 2 3 0.00 0.00
2:00 pm 14:00 Mostly Cloudy with Haze -4 -20 -13 -25 65 65 NNW 15 24 30.27 1025 4 6 0.00 0.00
2:16 pm 14:16 Cloudy with Haze -4 -20 -13 -25 65 65 NW 15 24 30.27 1025 4 6 0.00 0.00
2:32 pm 14:32 Partly Cloudy -4 -20 -15 -26.1 58 58 NNW 18 30 30.30 1026 9 14 0.00 0.00
2:41 pm 14:41 Mostly Cloudy -4 -20 -14 -25.6 61 61 NW 18 30 30.30 1026 8 13 0.00 0.00
2:53 pm 14:53 Mostly Cloudy -5 -20.6 -15 -26.1 62 62 NNW 17 28 30.18 1022 9 14 0.00 0.00
3:33 pm 15:33 Mostly Cloudy -5 -20.6 -15 -26.1 62 62 NW 17 28 30.30 1026 10 16 0.00 0.00
3:50 pm 15:50 Mostly Cloudy -6 -21 -17 -27 59 59 NW 16 26 30.30 1026 10 16 0.00 0.00
3:53 pm 15:53 Mostly Cloudy -6 -21.1 -16 -26.7 61 61 NW 17 28 30.19 1023 10 16 0.00 0.00
4:00 pm 16:00 Partly Cloudy -6 -21.1 -16 -26.7 61 61 NW 16 26 30.30 1026 10 16 0.00 0.00
4:10 pm 16:10 Mostly Cloudy -6 -21.1 -16 -26.7 61 61 NW 13 20 30.30 1026 9 14 0.00 0.00
4:17 pm 16:17 Partly Cloudy -6 -21.1 -16 -26.7 61 61 NW 16 26 30.30 1026 10 16 0.00 0.00
4:53 pm 16:53 Mostly Sunny -7 -21.7 -16 -26.7 64 64 NW 15 24 30.21 1023 10 16 0.00 0.00
5:53 pm 17:53 Clear -9 -22.8 -17 -27.2 67 67 NW 12 19 30.22 1023 10 16 0.00 0.00
6:53 pm 18:53 Clear -9 -22.8 -17 -27.2 67 67 NW 12 19 30.22 1023 10 16 0.00 0.00
7:53 pm 19:53 Clear -10 -23.3 -18 -27.8 67 67 NW 12 19 30.23 1024 10 16 0.00 0.00
8:53 pm 20:53 Clear -11 -23.9 -19 -28.3 67 67 NW 13 20 30.24 1024 10 16 0.00 0.00
9:53 pm 21:53 Clear -12 -24.4 -19 -28.3 70 70 WNW 10 17 30.25 1024 10 16 0.00 0.00
10:53 pm 22:53 Clear -13 -25 -20 -28.9 70 70 NW 12 19 30.25 1025 10 16 0.00 0.00
11:53 pm 23:53 Clear -12 -24.4 -20 -28.9 66 66 NW 13 20 30.26 1025 10 16 0.00 0.00

Powered by AerisWeather